﻿測定場所 (Monitoring sites),日付 (Measurement date),時間 (Measurement time),線量率 最大値 (max) μGy/h,線量率 最小値 (min) μGy/h,線量率 平均値 (average) μGy/h,
江戸川 (Edogawa),2015-05-17,23:01～24:00,0.0695,0.0614,0.0654,
江戸川 (Edogawa),2015-05-17,22:01～23:00,0.0690,0.0619,0.0655,
江戸川 (Edogawa),2015-05-17,21:01～22:00,0.0683,0.0625,0.0652,
江戸川 (Edogawa),2015-05-17,20:01～21:00,0.0684,0.0628,0.0657,
江戸川 (Edogawa),2015-05-17,19:01～20:00,0.0697,0.0630,0.0659,
江戸川 (Edogawa),2015-05-17,18:01～19:00,0.0701,0.0616,0.0657,
江戸川 (Edogawa),2015-05-17,17:01～18:00,0.0682,0.0615,0.0652,
江戸川 (Edogawa),2015-05-17,16:01～17:00,0.0699,0.0619,0.0657,
江戸川 (Edogawa),2015-05-17,15:01～16:00,0.0711,0.0623,0.0660,
江戸川 (Edogawa),2015-05-17,14:01～15:00,0.0686,0.0622,0.0655,
江戸川 (Edogawa),2015-05-17,13:01～14:00,0.0692,0.0616,0.0653,
江戸川 (Edogawa),2015-05-17,12:01～13:00,0.0679,0.0627,0.0655,
江戸川 (Edogawa),2015-05-17,11:01～12:00,0.0689,0.0615,0.0650,
江戸川 (Edogawa),2015-05-17,10:01～11:00,0.0690,0.0611,0.0653,
江戸川 (Edogawa),2015-05-17,09:01～10:00,0.0708,0.0625,0.0653,
江戸川 (Edogawa),2015-05-17,08:01～09:00,0.0690,0.0618,0.0653,
江戸川 (Edogawa),2015-05-17,07:01～08:00,0.0694,0.0619,0.0657,
江戸川 (Edogawa),2015-05-17,06:01～07:00,0.0693,0.0621,0.0656,
江戸川 (Edogawa),2015-05-17,05:01～06:00,0.0687,0.0619,0.0654,
江戸川 (Edogawa),2015-05-17,04:01～05:00,0.0688,0.0615,0.0656,
江戸川 (Edogawa),2015-05-17,03:01～04:00,0.0694,0.0614,0.0655,
江戸川 (Edogawa),2015-05-17,02:01～03:00,0.0706,0.0608,0.0655,
江戸川 (Edogawa),2015-05-17,01:01～02:00,0.0688,0.0618,0.0653,
江戸川 (Edogawa),2015-05-17,00:01～01:00,0.0692,0.0617,0.0652,
江戸川 (Edogawa),2015-05-16,23:01～24:00,0.0683,0.0617,0.0655,
江戸川 (Edogawa),2015-05-16,22:01～23:00,0.0693,0.0628,0.0656,
江戸川 (Edogawa),2015-05-16,21:01～22:00,0.0691,0.0622,0.0653,
江戸川 (Edogawa),2015-05-16,20:01～21:00,0.0673,0.0617,0.0649,
江戸川 (Edogawa),2015-05-16,19:01～20:00,0.0699,0.0624,0.0653,
江戸川 (Edogawa),2015-05-16,18:01～19:00,0.0687,0.0623,0.0653,
江戸川 (Edogawa),2015-05-16,17:01～18:00,0.0683,0.0625,0.0655,
江戸川 (Edogawa),2015-05-16,16:01～17:00,0.0682,0.0610,0.0648,
江戸川 (Edogawa),2015-05-16,15:01～16:00,0.0680,0.0627,0.0654,
江戸川 (Edogawa),2015-05-16,14:01～15:00,0.0713,0.0602,0.0650,
江戸川 (Edogawa),2015-05-16,13:01～14:00,0.0682,0.0613,0.0649,
江戸川 (Edogawa),2015-05-16,12:01～13:00,0.0684,0.0619,0.0653,
江戸川 (Edogawa),2015-05-16,11:01～12:00,0.0685,0.0627,0.0656,
江戸川 (Edogawa),2015-05-16,10:01～11:00,0.0717,0.0635,0.0674,
江戸川 (Edogawa),2015-05-16,09:01～10:00,0.0743,0.0650,0.0699,
江戸川 (Edogawa),2015-05-16,08:01～09:00,0.0749,0.0683,0.0719,
江戸川 (Edogawa),2015-05-16,07:01～08:00,0.0744,0.0669,0.0708,
江戸川 (Edogawa),2015-05-16,06:01～07:00,0.0800,0.0693,0.0737,
江戸川 (Edogawa),2015-05-16,05:01～06:00,0.0764,0.0686,0.0724,
江戸川 (Edogawa),2015-05-16,04:01～05:00,0.0819,0.0666,0.0730,
江戸川 (Edogawa),2015-05-16,03:01～04:00,0.0704,0.0613,0.0661,
江戸川 (Edogawa),2015-05-16,02:01～03:00,0.0694,0.0620,0.0655,
江戸川 (Edogawa),2015-05-16,01:01～02:00,0.0704,0.0626,0.0656,
江戸川 (Edogawa),2015-05-16,00:01～01:00,0.0710,0.0608,0.0656,
江戸川 (Edogawa),2015-05-15,23:01～24:00,0.0700,0.0631,0.0662,
江戸川 (Edogawa),2015-05-15,22:01～23:00,0.0698,0.0621,0.0659,
江戸川 (Edogawa),2015-05-15,21:01～22:00,0.0685,0.0614,0.0658,
江戸川 (Edogawa),2015-05-15,20:01～21:00,0.0710,0.0625,0.0658,
江戸川 (Edogawa),2015-05-15,19:01～20:00,0.0688,0.0623,0.0660,
江戸川 (Edogawa),2015-05-15,18:01～19:00,0.0698,0.0621,0.0658,
江戸川 (Edogawa),2015-05-15,17:01～18:00,0.0695,0.0622,0.0660,
江戸川 (Edogawa),2015-05-15,16:01～17:00,0.0688,0.0632,0.0659,
江戸川 (Edogawa),2015-05-15,15:01～16:00,0.0703,0.0616,0.0664,
江戸川 (Edogawa),2015-05-15,14:01～15:00,0.0706,0.0624,0.0663,
江戸川 (Edogawa),2015-05-15,13:01～14:00,0.0700,0.0638,0.0668,
江戸川 (Edogawa),2015-05-15,12:01～13:00,0.0695,0.0632,0.0664,
江戸川 (Edogawa),2015-05-15,11:01～12:00,0.0700,0.0619,0.0661,
江戸川 (Edogawa),2015-05-15,10:01～11:00,0.0688,0.0628,0.0663,
江戸川 (Edogawa),2015-05-15,09:01～10:00,0.0696,0.0623,0.0657,
江戸川 (Edogawa),2015-05-15,08:01～09:00,0.0702,0.0638,0.0661,
江戸川 (Edogawa),2015-05-15,07:01～08:00,0.0711,0.0612,0.0657,
江戸川 (Edogawa),2015-05-15,06:01～07:00,0.0726,0.0629,0.0660,
江戸川 (Edogawa),2015-05-15,05:01～06:00,0.0699,0.0625,0.0661,
江戸川 (Edogawa),2015-05-15,04:01～05:00,0.0702,0.0626,0.0659,
江戸川 (Edogawa),2015-05-15,03:01～04:00,0.0694,0.0611,0.0659,
江戸川 (Edogawa),2015-05-15,02:01～03:00,0.0686,0.0627,0.0658,
江戸川 (Edogawa),2015-05-15,01:01～02:00,0.0694,0.0635,0.0665,
江戸川 (Edogawa),2015-05-15,00:01～01:00,0.0690,0.0628,0.0659,
江戸川 (Edogawa),2015-05-14,23:01～24:00,0.0686,0.0628,0.0656,
江戸川 (Edogawa),2015-05-14,22:01～23:00,0.0696,0.0626,0.0657,
江戸川 (Edogawa),2015-05-14,21:01～22:00,0.0706,0.0620,0.0656,
江戸川 (Edogawa),2015-05-14,20:01～21:00,0.0681,0.0624,0.0655,
江戸川 (Edogawa),2015-05-14,19:01～20:00,0.0692,0.0616,0.0657,
江戸川 (Edogawa),2015-05-14,18:01～19:00,0.0684,0.0627,0.0655,
江戸川 (Edogawa),2015-05-14,17:01～18:00,0.0690,0.0616,0.0655,
江戸川 (Edogawa),2015-05-14,16:01～17:00,0.0689,0.0611,0.0657,
江戸川 (Edogawa),2015-05-14,15:01～16:00,0.0693,0.0620,0.0658,
江戸川 (Edogawa),2015-05-14,14:01～15:00,0.0714,0.0628,0.0661,
江戸川 (Edogawa),2015-05-14,13:01～14:00,0.0693,0.0627,0.0660,
江戸川 (Edogawa),2015-05-14,12:01～13:00,0.0703,0.0625,0.0662,
江戸川 (Edogawa),2015-05-14,11:01～12:00,0.0698,0.0625,0.0657,
江戸川 (Edogawa),2015-05-14,10:01～11:00,0.0688,0.0622,0.0657,
江戸川 (Edogawa),2015-05-14,09:01～10:00,0.0695,0.0624,0.0653,
江戸川 (Edogawa),2015-05-14,08:01～09:00,0.0686,0.0621,0.0654,
江戸川 (Edogawa),2015-05-14,07:01～08:00,0.0695,0.0613,0.0653,
江戸川 (Edogawa),2015-05-14,06:01～07:00,0.0693,0.0620,0.0655,
江戸川 (Edogawa),2015-05-14,05:01～06:00,0.0686,0.0607,0.0649,
江戸川 (Edogawa),2015-05-14,04:01～05:00,0.0682,0.0622,0.0652,
江戸川 (Edogawa),2015-05-14,03:01～04:00,0.0683,0.0622,0.0652,
江戸川 (Edogawa),2015-05-14,02:01～03:00,0.0694,0.0618,0.0651,
江戸川 (Edogawa),2015-05-14,01:01～02:00,0.0694,0.0612,0.0651,
江戸川 (Edogawa),2015-05-14,00:01～01:00,0.0682,0.0621,0.0650,
江戸川 (Edogawa),2015-05-13,23:01～24:00,0.0693,0.0615,0.0652,
江戸川 (Edogawa),2015-05-13,22:01～23:00,0.0685,0.0615,0.0652,
江戸川 (Edogawa),2015-05-13,21:01～22:00,0.0681,0.0611,0.0648,
江戸川 (Edogawa),2015-05-13,20:01～21:00,0.0689,0.0619,0.0651,
江戸川 (Edogawa),2015-05-13,19:01～20:00,0.0687,0.0606,0.0651,
江戸川 (Edogawa),2015-05-13,18:01～19:00,0.0699,0.0622,0.0653,
江戸川 (Edogawa),2015-05-13,17:01～18:00,0.0690,0.0615,0.0650,
江戸川 (Edogawa),2015-05-13,16:01～17:00,0.0698,0.0624,0.0653,
江戸川 (Edogawa),2015-05-13,15:01～16:00,0.0694,0.0610,0.0659,
江戸川 (Edogawa),2015-05-13,14:01～15:00,0.0693,0.0613,0.0651,
江戸川 (Edogawa),2015-05-13,13:01～14:00,0.0697,0.0619,0.0653,
江戸川 (Edogawa),2015-05-13,12:01～13:00,0.0685,0.0610,0.0649,
江戸川 (Edogawa),2015-05-13,11:01～12:00,0.0678,0.0617,0.0648,
江戸川 (Edogawa),2015-05-13,10:01～11:00,0.0678,0.0607,0.0645,
江戸川 (Edogawa),2015-05-13,09:01～10:00,0.0673,0.0617,0.0646,
江戸川 (Edogawa),2015-05-13,08:01～09:00,0.0678,0.0623,0.0644,
江戸川 (Edogawa),2015-05-13,07:01～08:00,0.0686,0.0602,0.0645,
江戸川 (Edogawa),2015-05-13,06:01～07:00,0.0677,0.0592,0.0640,
江戸川 (Edogawa),2015-05-13,05:01～06:00,0.0671,0.0595,0.0635,
江戸川 (Edogawa),2015-05-13,04:01～05:00,0.0683,0.0597,0.0641,
江戸川 (Edogawa),2015-05-13,03:01～04:00,0.0688,0.0599,0.0640,
江戸川 (Edogawa),2015-05-13,02:01～03:00,0.0668,0.0602,0.0637,
江戸川 (Edogawa),2015-05-13,01:01～02:00,0.0689,0.0604,0.0648,
江戸川 (Edogawa),2015-05-13,00:01～01:00,0.0717,0.0629,0.0679,
江戸川 (Edogawa),2015-05-12,23:01～24:00,0.0740,0.0656,0.0710,
江戸川 (Edogawa),2015-05-12,22:01～23:00,0.0718,0.0641,0.0681,
江戸川 (Edogawa),2015-05-12,21:01～22:00,0.0770,0.0672,0.0709,
江戸川 (Edogawa),2015-05-12,20:01～21:00,0.0725,0.0616,0.0673,
江戸川 (Edogawa),2015-05-12,19:01～20:00,0.0718,0.0635,0.0682,
江戸川 (Edogawa),2015-05-12,18:01～19:00,0.0726,0.0657,0.0685,
江戸川 (Edogawa),2015-05-12,17:01～18:00,0.0723,0.0640,0.0685,
江戸川 (Edogawa),2015-05-12,16:01～17:00,0.0720,0.0628,0.0680,
江戸川 (Edogawa),2015-05-12,15:01～16:00,0.0732,0.0640,0.0686,
江戸川 (Edogawa),2015-05-12,14:01～15:00,0.0722,0.0642,0.0683,
江戸川 (Edogawa),2015-05-12,13:01～14:00,0.0731,0.0658,0.0687,
江戸川 (Edogawa),2015-05-12,12:01～13:00,0.0721,0.0636,0.0684,
江戸川 (Edogawa),2015-05-12,11:01～12:00,0.0729,0.0657,0.0687,
江戸川 (Edogawa),2015-05-12,10:01～11:00,0.0723,0.0661,0.0690,
江戸川 (Edogawa),2015-05-12,09:01～10:00,0.0733,0.0634,0.0681,
江戸川 (Edogawa),2015-05-12,08:01～09:00,0.0729,0.0650,0.0688,
江戸川 (Edogawa),2015-05-12,07:01～08:00,0.0728,0.0652,0.0687,
江戸川 (Edogawa),2015-05-12,06:01～07:00,0.0720,0.0647,0.0677,
江戸川 (Edogawa),2015-05-12,05:01～06:00,0.0729,0.0636,0.0677,
江戸川 (Edogawa),2015-05-12,04:01～05:00,0.0721,0.0645,0.0682,
江戸川 (Edogawa),2015-05-12,03:01～04:00,0.0711,0.0639,0.0677,
江戸川 (Edogawa),2015-05-12,02:01～03:00,0.0709,0.0647,0.0678,
江戸川 (Edogawa),2015-05-12,01:01～02:00,0.0711,0.0643,0.0675,
江戸川 (Edogawa),2015-05-12,00:01～01:00,0.0727,0.0634,0.0678,
江戸川 (Edogawa),2015-05-11,23:01～24:00,0.0715,0.0632,0.0675,
江戸川 (Edogawa),2015-05-11,22:01～23:00,0.0714,0.0650,0.0681,
江戸川 (Edogawa),2015-05-11,21:01～22:00,0.0717,0.0641,0.0685,
江戸川 (Edogawa),2015-05-11,20:01～21:00,0.0720,0.0637,0.0677,
江戸川 (Edogawa),2015-05-11,19:01～20:00,0.0714,0.0652,0.0682,
江戸川 (Edogawa),2015-05-11,18:01～19:00,0.0721,0.0648,0.0682,
江戸川 (Edogawa),2015-05-11,17:01～18:00,0.0727,0.0645,0.0687,
江戸川 (Edogawa),2015-05-11,16:01～17:00,0.0727,0.0665,0.0688,
江戸川 (Edogawa),2015-05-11,15:01～16:00,0.0718,0.0655,0.0685,
江戸川 (Edogawa),2015-05-11,14:01～15:00,0.0731,0.0655,0.0689,
江戸川 (Edogawa),2015-05-11,13:01～14:00,0.0723,0.0648,0.0690,
江戸川 (Edogawa),2015-05-11,12:01～13:00,0.0716,0.0642,0.0686,
江戸川 (Edogawa),2015-05-11,11:01～12:00,0.0738,0.0638,0.0687,
江戸川 (Edogawa),2015-05-11,10:01～11:00,0.0715,0.0643,0.0684,
江戸川 (Edogawa),2015-05-11,09:01～10:00,0.0737,0.0642,0.0685,
江戸川 (Edogawa),2015-05-11,08:01～09:00,0.0723,0.0638,0.0687,
江戸川 (Edogawa),2015-05-11,07:01～08:00,0.0723,0.0652,0.0687,
江戸川 (Edogawa),2015-05-11,06:01～07:00,0.0741,0.0652,0.0684,
江戸川 (Edogawa),2015-05-11,05:01～06:00,0.0721,0.0624,0.0678,
江戸川 (Edogawa),2015-05-11,04:01～05:00,0.0720,0.0649,0.0684,
江戸川 (Edogawa),2015-05-11,03:01～04:00,0.0724,0.0617,0.0678,
江戸川 (Edogawa),2015-05-11,02:01～03:00,0.0713,0.0641,0.0677,
江戸川 (Edogawa),2015-05-11,01:01～02:00,0.0725,0.0636,0.0682,
江戸川 (Edogawa),2015-05-11,00:01～01:00,0.0730,0.0648,0.0683,
